User: anonymous   Login
Location: *
(37.5724°S, 58.0067°E)
Time: 01:05:53
(UTC+00:00)
Language:

Cosmos 371 Rocket - Orbit

View from above orbital plane
View from above orbital plane
View from above satellite
View from above satellite

Ground track
Ground track

The orbit data is extracted from the following two-line orbital elements,

1  4579U 70083B   20336.88276032  .00000113  00000-0  29527-4 0  9997
2  4579  74.0015 193.9008 0011742 257.3346 102.6508 14.60498825659255
Epoch (UTC): 01 December 2020 21:11:10
Eccentricity: 0.0011742
inclination: 74.0015°
perigee height: 683 km
apogee height: 700 km
right ascension of ascending node: 193.9008°
argument of perigee: 257.3346°
revolutions per day: 14.60498825
mean anomaly at epoch: 102.6508°
orbit number at epoch: 65925

The dashed part of the orbit path shows where the satellite is in the earth's shadow,  

DLR